Location: Kaseke
(18.0171°S, 31.0526°E)
Time: 12:07:26
(UTC+00:00)

Cosmos 1455 Rocket - Pass Details

Date: 14 July 2020
Orbit: 606 x 629 km, 82.5° (Epoch: 07 August)

Event Time Altitude Azimuth Distance (km) Brightness Sun altitude
Exits shadow 02:42:18 13° 166° (SSE) 1,781 5.4 -24.5°
Maximum altitude 02:45:57 44° 96° (E) 848 4.1 -23.6°
Drops below altitude 10° 02:50:04 10° 24° (NNE) 1,948 6.1 -22.7°
Sets 02:52:20 0° 17° (NNE) 2,844 6.9 -22.2°
